Time,TemperatureF,DewpointF,PressureIn,WindDirection,WindDirectionDegrees,WindSpeedMPH,WindSpeedGustMPH,Humidity,HourlyPrecipIn,Conditions,Clouds,dailyrainin,SoftwareType,DateUTC
2013-01-21 07:50:00,49.9,5.4,30.51,North,350,0.0,8.0,16,0.00,,,0.00,Wunderground v.1.15,2013-01-21 15:50:00,
2013-01-21 08:00:00,50.6,4.6,30.51,NNW,348,2.0,2.0,15,0.00,,,0.00,Wunderground v.1.15,2013-01-21 16:00:00,
2013-01-21 08:05:00,51.0,4.9,30.51,North,360,2.0,7.0,15,0.00,,,0.00,Wunderground v.1.15,2013-01-21 16:05:00,
2013-01-21 08:15:00,51.4,5.2,30.51,NNW,348,3.0,3.0,15,0.00,,,0.00,Wunderground v.1.15,2013-01-21 16:15:00,
2013-01-21 08:20:00,51.5,5.3,30.52,North,358,4.0,6.0,15,0.00,,,0.00,Wunderground v.1.15,2013-01-21 16:20:00,
2013-01-21 08:30:00,51.7,5.4,30.52,North,350,5.0,8.0,15,0.00,,,0.00,Wunderground v.1.15,2013-01-21 16:30:00,
2013-01-21 08:35:00,51.9,4.1,30.53,North,353,5.0,5.0,14,0.00,,,0.00,Wunderground v.1.15,2013-01-21 16:35:00,
2013-01-21 08:40:00,51.9,4.1,30.53,NNW,341,5.0,6.0,14,0.00,,,0.00,Wunderground v.1.15,2013-01-21 16:40:00,
2013-01-21 08:45:00,52.0,4.2,30.53,NW,323,6.0,11.0,14,0.00,,,0.00,Wunderground v.1.15,2013-01-21 16:45:00,
2013-01-21 08:50:00,52.3,4.4,30.53,NW,322,6.0,11.0,14,0.00,,,0.00,Wunderground v.1.15,2013-01-21 16:50:00,
2013-01-21 09:00:00,52.9,3.3,30.53,NNW,327,8.0,11.0,13,0.00,,,0.00,Wunderground v.1.15,2013-01-21 17:00:00,
2013-01-21 09:05:00,53.2,3.5,30.54,NNW,329,9.0,13.0,13,0.00,,,0.00,Wunderground v.1.15,2013-01-21 17:05:00,
2013-01-21 09:15:00,53.7,3.9,30.54,NNW,336,10.0,10.0,13,0.00,,,0.00,Wunderground v.1.15,2013-01-21 17:15:00,
2013-01-21 09:20:00,54.1,2.5,30.54,NW,322,10.0,13.0,12,0.00,,,0.00,Wunderground v.1.15,2013-01-21 17:20:00,
2013-01-21 09:25:00,54.0,2.4,30.54,NNW,333,11.0,13.0,12,0.00,,,0.00,Wunderground v.1.15,2013-01-21 17:25:00,
2013-01-21 09:35:00,54.4,2.7,30.54,NNW,343,9.0,18.0,12,0.00,,,0.00,Wunderground v.1.15,2013-01-21 17:35:00,
2013-01-21 09:45:00,55.0,3.2,30.54,NNW,342,9.0,10.0,12,0.00,,,0.00,Wunderground v.1.15,2013-01-21 17:45:00,
2013-01-21 09:50:00,55.3,1.6,30.54,NW,320,10.0,10.0,11,0.00,,,0.00,Wunderground v.1.15,2013-01-21 17:50:00,
2013-01-21 10:00:00,55.8,2.0,30.55,NW,321,9.0,18.0,11,0.00,,,0.00,Wunderground v.1.15,2013-01-21 18:00:00,
2013-01-21 10:05:00,56.1,2.2,30.55,NNW,341,9.0,18.0,11,0.00,,,0.00,Wunderground v.1.15,2013-01-21 18:05:00,
2013-01-21 10:10:00,56.2,2.3,30.55,NW,316,9.0,16.0,11,0.00,,,0.00,Wunderground v.1.15,2013-01-21 18:10:00,
2013-01-21 10:15:00,56.4,0.4,30.55,NW,325,9.0,16.0,10,0.00,,,0.00,Wunderground v.1.15,2013-01-21 18:15:00,
2013-01-21 10:25:00,56.6,0.5,30.55,NW,315,10.0,16.0,10,0.00,,,0.00,Wunderground v.1.15,2013-01-21 18:25:00,
2013-01-21 10:30:00,56.7,0.6,30.54,NW,306,9.0,16.0,10,0.00,,,0.00,Wunderground v.1.15,2013-01-21 18:30:00,
2013-01-21 10:35:00,56.3,0.3,30.55,WNW,296,10.0,16.0,10,0.00,,,0.00,Wunderground v.1.15,2013-01-21 18:35:00,
2013-01-21 10:45:00,56.6,0.5,30.54,NNW,327,10.0,16.0,10,0.00,,,0.00,Wunderground v.1.15,2013-01-21 18:45:00,
2013-01-21 10:50:00,56.8,0.7,30.55,NW,316,8.0,16.0,10,0.00,,,0.00,Wunderground v.1.15,2013-01-21 18:50:00,
2013-01-21 11:00:00,56.9,-1.5,30.54,NW,319,7.0,16.0,9,0.00,,,0.00,Wunderground v.1.15,2013-01-21 19:00:00,
2013-01-21 11:05:00,56.9,0.8,30.54,NNW,329,9.0,17.0,10,0.00,,,0.00,Wunderground v.1.15,2013-01-21 19:05:00,
2013-01-21 11:15:00,57.4,-1.1,30.53,NW,304,8.0,17.0,9,0.00,,,0.00,Wunderground v.1.15,2013-01-21 19:15:00,
2013-01-21 11:20:00,57.4,-1.1,30.53,WNW,289,9.0,9.0,9,0.00,,,0.00,Wunderground v.1.15,2013-01-21 19:20:00,
2013-01-21 11:30:00,58.1,-0.6,30.53,WNW,285,9.0,17.0,9,0.00,,,0.00,Wunderground v.1.15,2013-01-21 19:30:00,
2013-01-21 11:35:00,58.2,-0.5,30.53,North,354,10.0,17.0,9,0.00,,,0.00,Wunderground v.1.15,2013-01-21 19:35:00,
2013-01-21 11:40:00,58.2,-0.5,30.53,NW,326,9.0,17.0,9,0.00,,,0.00,Wunderground v.1.15,2013-01-21 19:40:00,
2013-01-21 11:45:00,58.7,-0.1,30.52,NW,323,9.0,17.0,9,0.00,,,0.00,Wunderground v.1.15,2013-01-21 19:45:00,
2013-01-21 11:50:00,58.9,0.1,30.52,WNW,291,8.0,8.0,9,0.00,,,0.00,Wunderground v.1.15,2013-01-21 19:50:00,
2013-01-21 12:00:00,58.6,-2.7,30.51,NW,320,9.0,9.0,8,0.00,,,0.00,Wunderground v.1.15,2013-01-21 20:00:00,
2013-01-21 12:05:00,58.7,-0.1,30.51,WNW,289,8.0,16.0,9,0.00,,,0.00,Wunderground v.1.15,2013-01-21 20:05:00,
2013-01-21 12:15:00,59.0,0.1,30.51,WNW,295,7.0,16.0,9,0.00,,,0.00,Wunderground v.1.15,2013-01-21 20:15:00,
2013-01-21 12:20:00,59.2,-2.2,30.51,WNW,289,8.0,8.0,8,0.00,,,0.00,Wunderground v.1.15,2013-01-21 20:20:00,
2013-01-21 12:30:00,59.5,-2.0,30.50,WNW,303,6.0,16.0,8,0.00,,,0.00,Wunderground v.1.15,2013-01-21 20:30:00,
2013-01-21 12:35:00,59.7,-1.8,30.50,WNW,285,7.0,16.0,8,0.00,,,0.00,Wunderground v.1.15,2013-01-21 20:35:00,
2013-01-21 12:45:00,59.8,-1.8,30.49,NW,323,7.0,15.0,8,0.00,,,0.00,Wunderground v.1.15,2013-01-21 20:45:00,
2013-01-21 12:50:00,59.7,-1.8,30.49,NNW,328,9.0,15.0,8,0.00,,,0.00,Wunderground v.1.15,2013-01-21 20:50:00,
2013-01-21 13:00:00,59.9,-1.7,30.49,NNW,339,9.0,15.0,8,0.00,,,0.00,Wunderground v.1.15,2013-01-21 21:00:00,
2013-01-21 13:05:00,60.1,-1.5,30.49,NW,318,9.0,15.0,8,0.00,,,0.00,Wunderground v.1.15,2013-01-21 21:05:00,
2013-01-21 13:15:00,60.4,-4.1,30.48,NW,308,8.0,14.0,7,0.00,,,0.00,Wunderground v.1.15,2013-01-21 21:15:00,
2013-01-21 13:20:00,60.5,-4.1,30.48,NNW,341,8.0,14.0,7,0.00,,,0.00,Wunderground v.1.15,2013-01-21 21:20:00,
2013-01-21 13:30:00,60.2,-4.3,30.48,NNW,340,10.0,10.0,7,0.00,,,0.00,Wunderground v.1.15,2013-01-21 21:30:00,
2013-01-21 13:35:00,60.4,-4.1,30.48,NNW,329,9.0,16.0,7,0.00,,,0.00,Wunderground v.1.15,2013-01-21 21:35:00,
2013-01-21 13:45:00,60.8,-3.8,30.48,NW,304,8.0,16.0,7,0.00,,,0.00,Wunderground v.1.15,2013-01-21 21:45:00,
2013-01-21 13:50:00,60.6,-4.0,30.48,NNW,336,6.0,16.0,7,0.00,,,0.00,Wunderground v.1.15,2013-01-21 21:50:00,
2013-01-21 14:00:00,60.7,-3.9,30.48,NNW,339,7.0,7.0,7,0.00,,,0.00,Wunderground v.1.15,2013-01-21 22:00:00,
2013-01-21 14:05:00,60.9,-3.8,30.47,NW,315,8.0,10.0,7,0.00,,,0.00,Wunderground v.1.15,2013-01-21 22:05:00,
2013-01-21 14:15:00,60.8,-3.8,30.47,WNW,299,7.0,14.0,7,0.00,,,0.00,Wunderground v.1.15,2013-01-21 22:15:00,
2013-01-21 14:20:00,61.2,-3.5,30.47,NW,321,6.0,14.0,7,0.00,,,0.00,Wunderground v.1.15,2013-01-21 22:20:00,
2013-01-21 14:30:00,61.1,-3.6,30.47,WNW,301,8.0,8.0,7,0.00,,,0.00,Wunderground v.1.15,2013-01-21 22:30:00,
2013-01-21 14:35:00,61.2,-3.5,30.47,WNW,302,8.0,14.0,7,0.00,,,0.00,Wunderground v.1.15,2013-01-21 22:35:00,
2013-01-21 14:40:00,61.7,-3.2,30.47,NNW,328,7.0,14.0,7,0.00,,,0.00,Wunderground v.1.15,2013-01-21 22:40:00,
2013-01-21 14:45:00,61.9,-3.0,30.47,NNW,327,6.0,14.0,7,0.00,,,0.00,Wunderground v.1.15,2013-01-21 22:45:00,
2013-01-21 14:55:00,60.9,-3.8,30.47,NW,324,10.0,14.0,7,0.00,,,0.00,Wunderground v.1.15,2013-01-21 22:55:00,
2013-01-21 15:00:00,60.7,-3.9,30.47,NW,308,9.0,9.0,7,0.00,,,0.00,Wunderground v.1.15,2013-01-21 23:00:00,
2013-01-21 15:05:00,61.0,-3.7,30.47,WNW,294,7.0,15.0,7,0.00,,,0.00,Wunderground v.1.15,2013-01-21 23:05:00,
2013-01-21 15:15:00,60.9,-3.8,30.47,NW,308,6.0,15.0,7,0.00,,,0.00,Wunderground v.1.15,2013-01-21 23:15:00,
2013-01-21 15:20:00,60.9,-3.8,30.47,NW,318,7.0,15.0,7,0.00,,,0.00,Wunderground v.1.15,2013-01-21 23:20:00,
2013-01-21 15:30:00,60.8,-3.8,30.46,WNW,291,6.0,15.0,7,0.00,,,0.00,Wunderground v.1.15,2013-01-21 23:30:00,
2013-01-21 15:35:00,60.5,-4.1,30.46,NNW,341,7.0,15.0,7,0.00,,,0.00,Wunderground v.1.15,2013-01-21 23:35:00,
2013-01-21 15:45:00,60.2,-4.3,30.46,NW,314,7.0,13.0,7,0.00,,,0.00,Wunderground v.1.15,2013-01-21 23:45:00,
2013-01-21 15:50:00,60.0,-4.4,30.46,WNW,300,7.0,13.0,7,0.00,,,0.00,Wunderground v.1.15,2013-01-21 23:50:00,
2013-01-21 15:55:00,59.8,-4.6,30.46,NW,312,8.0,13.0,7,0.00,,,0.00,Wunderground v.1.15,2013-01-21 23:55:00,
2013-01-21 16:00:00,59.8,-4.6,30.46,NW,311,7.0,13.0,7,0.00,,,0.00,Wunderground v.1.15,2013-01-22 00:00:00,
2013-01-21 16:05:00,59.5,-4.8,30.46,NW,315,7.0,13.0,7,0.00,,,0.00,Wunderground v.1.15,2013-01-22 00:05:00,
2013-01-21 16:15:00,59.2,-2.2,30.46,NNW,329,5.0,13.0,8,0.00,,,0.00,Wunderground v.1.15,2013-01-22 00:15:00,
2013-01-21 16:20:00,58.9,0.1,30.46,NNW,345,5.0,13.0,9,0.00,,,0.00,Wunderground v.1.15,2013-01-22 00:20:00,
2013-01-21 16:30:00,58.5,-0.3,30.46,NNW,340,3.0,13.0,9,0.00,,,0.00,Wunderground v.1.15,2013-01-22 00:30:00,
2013-01-21 16:35:00,58.2,-0.5,30.46,NW,325,3.0,13.0,9,0.00,,,0.00,Wunderground v.1.15,2013-01-22 00:35:00,
2013-01-21 16:40:00,57.8,-0.8,30.46,NNW,342,3.0,10.0,9,0.00,,,0.00,Wunderground v.1.15,2013-01-22 00:40:00,
2013-01-21 16:45:00,57.4,-1.1,30.46,NNW,340,2.0,10.0,9,0.00,,,0.00,Wunderground v.1.15,2013-01-22 00:45:00,
2013-01-21 16:50:00,56.9,-1.5,30.46,NNW,341,1.0,1.0,9,0.00,,,0.00,Wunderground v.1.15,2013-01-22 00:50:00,
2013-01-21 17:00:00,55.6,-0.2,30.46,North,8,0.0,10.0,10,0.00,,,0.00,Wunderground v.1.15,2013-01-22 01:00:00,
2013-01-21 17:05:00,55.2,-0.5,30.46,North,8,0.0,10.0,10,0.00,,,0.00,Wunderground v.1.15,2013-01-22 01:05:00,
2013-01-21 17:15:00,54.4,-1.2,30.47,North,8,0.0,8.0,10,0.00,,,0.00,Wunderground v.1.15,2013-01-22 01:15:00,
2013-01-21 17:20:00,54.1,-1.4,30.46,North,10,0.0,8.0,10,0.00,,,0.00,Wunderground v.1.15,2013-01-22 01:20:00,
2013-01-21 17:30:00,53.3,0.0,30.47,North,10,0.0,8.0,11,0.00,,,0.00,Wunderground v.1.15,2013-01-22 01:30:00,
2013-01-21 17:40:00,52.3,-0.8,30.47,North,11,0.0,3.0,11,0.00,,,0.00,Wunderground v.1.15,2013-01-22 01:40:00,
2013-01-21 17:45:00,51.9,0.8,30.47,NNE,25,0.0,3.0,12,0.00,,,0.00,Wunderground v.1.15,2013-01-22 01:45:00,
2013-01-21 17:50:00,51.4,0.4,30.47,NNE,33,0.0,3.0,12,0.00,,,0.00,Wunderground v.1.15,2013-01-22 01:50:00,
2013-01-21 18:00:00,50.8,-0.1,30.47,NNE,33,0.0,3.0,12,0.00,,,0.00,Wunderground v.1.15,2013-01-22 02:00:00,
2013-01-21 18:05:00,50.9,0.0,30.47,NNE,33,0.0,4.0,12,0.00,,,0.00,Wunderground v.1.15,2013-01-22 02:05:00,
2013-01-21 18:15:00,51.0,0.1,30.47,NE,34,0.0,4.0,12,0.00,,,0.00,Wunderground v.1.15,2013-01-22 02:15:00,
2013-01-21 18:20:00,50.2,-0.6,30.47,NE,34,1.0,1.0,12,0.00,,,0.00,Wunderground v.1.15,2013-01-22 02:20:00,
2013-01-21 18:30:00,49.2,0.3,30.47,NE,40,0.0,4.0,13,0.00,,,0.00,Wunderground v.1.15,2013-01-22 02:30:00,
2013-01-21 18:40:00,48.8,0.0,30.48,NE,40,0.0,4.0,13,0.00,,,0.00,Wunderground v.1.15,2013-01-22 02:40:00,
2013-01-21 18:50:00,48.6,1.5,30.48,NE,40,0.0,4.0,14,0.00,,,0.00,Wunderground v.1.15,2013-01-22 02:50:00,
2013-01-21 19:00:00,46.8,0.0,30.48,NE,56,2.0,2.0,14,0.00,,,0.00,Wunderground v.1.15,2013-01-22 03:00:00,
2013-01-21 19:05:00,46.5,1.2,30.48,NE,56,2.0,5.0,15,0.00,,,0.00,Wunderground v.1.15,2013-01-22 03:05:00,
2013-01-21 19:15:00,46.8,1.5,30.48,NE,56,0.0,5.0,15,0.00,,,0.00,Wunderground v.1.15,2013-01-22 03:15:00,
2013-01-21 19:20:00,47.2,0.3,30.49,NE,56,0.0,5.0,14,0.00,,,0.00,Wunderground v.1.15,2013-01-22 03:20:00,
2013-01-21 19:30:00,47.5,0.6,30.48,NE,56,1.0,5.0,14,0.00,,,0.00,Wunderground v.1.15,2013-01-22 03:30:00,
2013-01-21 19:35:00,47.5,0.6,30.48,ENE,66,1.0,5.0,14,0.00,,,0.00,Wunderground v.1.15,2013-01-22 03:35:00,
2013-01-21 19:45:00,47.1,0.2,30.48,ENE,74,2.0,6.0,14,0.00,,,0.00,Wunderground v.1.15,2013-01-22 03:45:00,
2013-01-21 19:50:00,47.4,0.5,30.48,East,84,3.0,3.0,14,0.00,,,0.00,Wunderground v.1.15,2013-01-22 03:50:00,
2013-01-21 20:00:00,48.0,1.0,30.48,East,84,1.0,5.0,14,0.00,,,0.00,Wunderground v.1.15,2013-01-22 04:00:00,
2013-01-21 20:10:00,47.0,0.2,30.48,East,89,1.0,6.0,14,0.00,,,0.00,Wunderground v.1.15,2013-01-22 04:10:00,
2013-01-21 20:15:00,47.6,0.7,30.48,East,89,3.0,6.0,14,0.00,,,0.00,Wunderground v.1.15,2013-01-22 04:15:00,
2013-01-21 20:20:00,47.7,0.7,30.48,East,89,2.0,6.0,14,0.00,,,0.00,Wunderground v.1.15,2013-01-22 04:20:00,
2013-01-21 20:30:00,46.1,0.9,30.49,East,79,5.0,5.0,15,0.00,,,0.00,Wunderground v.1.15,2013-01-22 04:30:00,
2013-01-21 20:35:00,46.2,1.0,30.49,East,89,4.0,8.0,15,0.00,,,0.00,Wunderground v.1.15,2013-01-22 04:35:00,
2013-01-21 20:45:00,46.9,0.1,30.49,East,89,3.0,4.0,14,0.00,,,0.00,Wunderground v.1.15,2013-01-22 04:45:00,
2013-01-21 20:50:00,47.0,0.2,30.49,East,89,3.0,8.0,14,0.00,,,0.00,Wunderground v.1.15,2013-01-22 04:50:00,
2013-01-21 21:00:00,46.4,1.2,30.49,East,89,4.0,8.0,15,0.00,,,0.00,Wunderground v.1.15,2013-01-22 05:00:00,
2013-01-21 21:05:00,46.6,-0.2,30.49,East,89,4.0,8.0,14,0.00,,,0.00,Wunderground v.1.15,2013-01-22 05:05:00,
2013-01-21 21:10:00,46.7,-0.1,30.50,East,89,4.0,7.0,14,0.00,,,0.00,Wunderground v.1.15,2013-01-22 05:10:00,
2013-01-21 21:15:00,46.9,0.1,30.50,East,89,4.0,7.0,14,0.00,,,0.00,Wunderground v.1.15,2013-01-22 05:15:00,
2013-01-21 21:20:00,46.7,-0.1,30.50,East,89,4.0,7.0,14,0.00,,,0.00,Wunderground v.1.15,2013-01-22 05:20:00,
2013-01-21 21:25:00,46.1,0.9,30.50,East,84,4.0,7.0,15,0.00,,,0.00,Wunderground v.1.15,2013-01-22 05:25:00,
2013-01-21 21:30:00,44.6,1.1,30.50,East,84,5.0,7.0,16,0.00,,,0.00,Wunderground v.1.15,2013-01-22 05:30:00,
2013-01-21 21:40:00,45.5,0.4,30.50,East,84,5.0,9.0,15,0.00,,,0.00,Wunderground v.1.15,2013-01-22 05:40:00,
2013-01-21 21:50:00,46.3,1.1,30.51,East,89,6.0,6.0,15,0.00,,,0.00,Wunderground v.1.15,2013-01-22 05:50:00,
2013-01-21 22:00:00,47.0,0.2,30.51,East,84,6.0,6.0,14,0.00,,,0.00,Wunderground v.1.15,2013-01-22 06:00:00,
2013-01-21 22:05:00,46.9,0.1,30.51,East,84,5.0,10.0,14,0.00,,,0.00,Wunderground v.1.15,2013-01-22 06:05:00,
2013-01-21 22:15:00,46.5,1.2,30.51,East,89,6.0,10.0,15,0.00,,,0.00,Wunderground v.1.15,2013-01-22 06:15:00,
2013-01-21 22:20:00,46.8,1.5,30.51,East,84,6.0,6.0,15,0.00,,,0.00,Wunderground v.1.15,2013-01-22 06:20:00,
2013-01-21 22:30:00,47.1,0.2,30.51,East,84,6.0,10.0,14,0.00,,,0.00,Wunderground v.1.15,2013-01-22 06:30:00,
2013-01-21 22:35:00,47.1,0.2,30.51,ENE,77,7.0,10.0,14,0.00,,,0.00,Wunderground v.1.15,2013-01-22 06:35:00,
2013-01-21 22:45:00,46.0,0.8,30.51,East,84,7.0,7.0,15,0.00,,,0.00,Wunderground v.1.15,2013-01-22 06:45:00,
2013-01-21 22:50:00,46.4,1.2,30.51,East,84,6.0,10.0,15,0.00,,,0.00,Wunderground v.1.15,2013-01-22 06:50:00,
2013-01-21 22:55:00,47.0,1.6,30.51,East,84,6.0,10.0,15,0.00,,,0.00,Wunderground v.1.15,2013-01-22 06:55:00,
2013-01-21 23:05:00,46.9,0.1,30.50,East,84,5.0,9.0,14,0.00,,,0.00,Wunderground v.1.15,2013-01-22 07:05:00,
2013-01-21 23:10:00,47.0,0.2,30.50,East,84,5.0,9.0,14,0.00,,,0.00,Wunderground v.1.15,2013-01-22 07:10:00,
2013-01-21 23:15:00,47.2,0.3,30.50,East,84,4.0,9.0,14,0.00,,,0.00,Wunderground v.1.15,2013-01-22 07:15:00,
2013-01-21 23:25:00,47.4,0.5,30.51,East,84,4.0,9.0,14,0.00,,,0.00,Wunderground v.1.15,2013-01-22 07:25:00,
2013-01-21 23:30:00,47.5,0.6,30.51,East,84,3.0,3.0,14,0.00,,,0.00,Wunderground v.1.15,2013-01-22 07:30:00,
2013-01-21 23:35:00,47.8,0.8,30.51,East,84,3.0,6.0,14,0.00,,,0.00,Wunderground v.1.15,2013-01-22 07:35:00,
2013-01-21 23:45:00,45.1,1.5,30.51,East,84,5.0,8.0,16,0.00,,,0.00,Wunderground v.1.15,2013-01-22 07:45:00,
2013-01-21 23:50:00,44.2,0.8,30.51,ENE,76,6.0,8.0,16,0.00,,,0.00,Wunderground v.1.15,2013-01-22 07:50:00,
2013-01-21 23:55:00,45.2,1.6,30.51,East,84,6.0,8.0,16,0.00,,,0.00,Wunderground v.1.15,2013-01-22 07:55:00,